This demonstration page uses our WeatherBlox Daily Observations layout. Learn more.

Left ArrowRight Arrow

36.19886, -115.1175

Hourly Observations for February 8, 2021

Temp ( °F °C ) Dew Point ( °F °C ) Humidity (%) Winds ( mph kmh ) Pressure ( in mb ) Visibility ( mi km ) Precip ( " mm )
12:53 am 00:53 Clear 45 7.2 20 -6.7 37 37 NNW 3 6 29.88 1012 10 16 N/A
1:53 am 01:53 Clear 45 7.2 20 -6.7 37 37 WNW 7 11 29.87 1012 10 16 N/A
2:53 am 02:53 Clear 46 7.8 19 -7.2 34 34 NNW 5 7 29.86 1011 10 16 N/A
3:53 am 03:53 Clear 44 6.7 17 -8.3 34 34 NW 6 9 29.86 1011 10 16 N/A
4:53 am 04:53 Clear 42 5.6 19 -7.2 40 40 NNW 6 9 29.88 1012 10 16 N/A
5:53 am 05:53 Clear 43 6.1 19 -7.2 38 38 NW 8 13 29.90 1012 10 16 N/A
6:53 am 06:53 Sunny 43 6.1 17 -8.3 35 35 NW 6 9 29.92 1013 10 16 N/A
7:53 am 07:53 Sunny 49 9.4 17 -8.3 28 28 NNW 6 9 29.95 1014 10 16 N/A
8:53 am 08:53 Sunny 55 12.8 19 -7.2 24 24 N N/A 29.96 1014 10 16 N/A
9:53 am 09:53 Sunny 58 14.4 18 -7.8 21 21 N N/A 29.97 1015 10 16 N/A
10:53 am 10:53 Sunny 60 15.6 18 -7.8 19 19 ENE 3 6 29.96 1015 10 16 N/A
11:53 am 11:53 Sunny 62 16.7 17 -8.3 17 17 SE 5 7 29.93 1014 10 16 N/A
12:53 pm 12:53 Sunny 63 17.2 16 -8.9 16 16 ESE 5 7 29.91 1013 10 16 N/A
1:53 pm 13:53 Sunny 67 19.4 15 -9.4 13 13 VRB 3 6 29.89 1012 10 16 N/A
2:53 pm 14:53 Sunny 67 19.4 15 -9.4 13 13 N N/A 29.88 1012 10 16 N/A
3:53 pm 15:53 Sunny 67 19.4 16 -8.9 14 14 N N/A 29.88 1012 10 16 N/A
4:53 pm 16:53 Sunny 67 19.4 16 -8.9 14 14 NNE 5 7 29.87 1012 10 16 N/A
5:53 pm 17:53 Clear 65 18.3 17 -8.3 16 16 N 3 6 29.89 1012 10 16 N/A
6:53 pm 18:53 Clear 61 16.1 19 -7.2 20 20 NW 3 6 29.91 1013 10 16 N/A
7:53 pm 19:53 Clear 59 15 22 -5.6 24 24 WNW 5 7 29.91 1013 10 16 N/A
8:53 pm 20:53 Clear 56 13.3 22 -5.6 27 27 NW 5 7 29.91 1013 10 16 N/A
9:53 pm 21:53 Clear 55 12.8 23 -5 29 29 NW 6 9 29.92 1013 10 16 N/A
10:53 pm 22:53 Clear 56 13.3 23 -5 28 28 NW 5 7 29.92 1013 10 16 N/A
11:53 pm 23:53 Clear 55 12.8 23 -5 29 29 N 6 9 29.91 1013 10 16 N/A

Powered by AerisWeather